User: anonymous   Login
Location: Downe
(51.3167°N, 0.0500°E)
Time: 21:12:38
(UTC+00:00)
Language:

ALOS - Orbit

View from above orbital plane
View from above orbital plane
View from above satellite
View from above satellite

Ground track
Ground track

The orbit data is extracted from the following two-line orbital elements,

1 28931U 06002A   20027.46919976  .00000077  00000-0  23658-4 0  9995
2 28931  97.8341  20.2565 0001366 111.8651 248.2695 14.62677069746940
Epoch (UTC): 27 January 2020 11:15:38
Eccentricity: 0.0001366
inclination: 97.8341°
perigee height: 683 km
apogee height: 685 km
right ascension of ascending node: 20.2565°
argument of perigee: 111.8651°
revolutions per day: 14.62677069
mean anomaly at epoch: 248.2695°
orbit number at epoch: 74694

The dashed part of the orbit path shows where the satellite is in the earth's shadow,  

DLR